Tucumcari, NM

5:43 AM MST on December 08, 2016 (GMT -0700)
Tucumcari Municipal

Weather History for KTCC - January, 2013

Change the Weather History Date:

Tuesday, January 22, 2013

  Actual Average Record
Temperature  
Mean Temperature 50 °F -  
Max Temperature 72 °F 53 °F 80 °F (1950)
Min Temperature 27 °F 25 °F -3 °F (1966)
Degree Days  
Heating Degree Days 16    
Moisture  
Dew Point 15 °F    
Average Humidity 38    
Maximum Humidity 69    
Minimum Humidity 7    
Precipitation  
Precipitation 0.00 in - - ()
Sea Level Pressure  
Sea Level Pressure 30.10 in    
Wind  
Wind Speed 7 mph (West)    
Max Wind Speed 12 mph    
Max Gust Speed -    
Visibility 10 miles    
Events      
Averages and records for this station are not official NWS values.
T = Trace of Precipitation, MM = Missing Value Source: NWS Daily Summary

Daily Weather History Graph

Daily Weather History Graph

Search for Another Location

Airport or City:

Trip Planner

Search our weather history database for the weather conditions in past years. The results will help you decide how hot, cold, wet, or windy it might be!

Date:

Astronomy

Jan. 22, 2013 Rise Set
Actual Time 6:59 AM MST 5:12 PM MST
Civil Twilight 6:32 AM MST 5:40 PM MST
Nautical Twilight 6:01 AM MST 6:10 PM MST
Astronomical Twilight 5:31 AM MST 6:41 PM MST
Moon 1:39 PM MST (1/22) 3:21 AM MST (1/22)
Length of Visible Light 11h 07m
Length of Day
10h 13m
Waxing Gibbous, 83% of the Moon is Illuminated
Jan 22
Waxing Gibbous
Jan 26
Full
Feb 3
Last Quarter
Feb 10
New
Feb 17
First Quarter

Hourly Weather History & Observations

Time (MST) Temp. Windchill Dew Point Humidity Pressure Visibility Wind Dir Wind Speed Gust Speed Precip Events Conditions
12:53 AM 28.0 °F 21.7 °F 19.0 °F 69% 30.16 in 10.0 mi WNW 5.8 mph - N/A   Clear
1:53 AM 30.0 °F 22.4 °F 21.0 °F 69% 30.15 in 10.0 mi West 8.1 mph - N/A   Clear
2:53 AM 28.9 °F 19.8 °F 19.9 °F 69% 30.15 in 10.0 mi WNW 10.4 mph - N/A   Clear
3:53 AM 28.9 °F 21.9 °F 19.0 °F 67% 30.13 in 10.0 mi West 6.9 mph - N/A   Clear
4:53 AM 30.0 °F 22.4 °F 19.0 °F 64% 30.13 in 10.0 mi West 8.1 mph - N/A   Clear
5:53 AM 27.0 °F 21.6 °F 18.0 °F 69% 30.17 in 10.0 mi West 4.6 mph - N/A   Clear
6:53 AM 28.9 °F 19.8 °F 18.0 °F 64% 30.16 in 10.0 mi West 10.4 mph - N/A   Clear
7:53 AM 32.0 °F 23.0 °F 19.0 °F 59% 30.18 in 10.0 mi West 11.5 mph - N/A   Clear
8:53 AM 39.9 °F 33.9 °F 19.0 °F 43% 30.16 in 10.0 mi West 9.2 mph - N/A   Clear
9:53 AM 46.0 °F 43.1 °F 21.0 °F 37% 30.16 in 10.0 mi West 5.8 mph - N/A   Clear
10:53 AM 54.0 °F - 18.0 °F 24% 30.13 in 10.0 mi West 6.9 mph - N/A   Clear
11:53 AM 61.0 °F - 15.1 °F 17% 30.08 in 10.0 mi WSW 5.8 mph - N/A   Clear
12:53 PM 66.9 °F - 15.1 °F 14% 30.04 in 10.0 mi Variable 4.6 mph - N/A   Clear
1:53 PM 71.1 °F - 10.9 °F 10% 30.00 in 10.0 mi SSW 6.9 mph - N/A   Clear
2:53 PM 71.1 °F - 9.0 °F 9% 30.00 in 10.0 mi Calm Calm - N/A   Clear
3:53 PM 72.0 °F - 5.0 °F 7% 29.99 in 10.0 mi West 4.6 mph - N/A   Clear
4:53 PM 64.0 °F - 6.1 °F 10% 30.01 in 10.0 mi SW 5.8 mph - N/A   Clear
5:53 PM 57.0 °F - 9.0 °F 15% 30.06 in 10.0 mi SW 5.8 mph - N/A   Clear
6:53 PM 46.0 °F - 10.9 °F 24% 30.10 in 10.0 mi Calm Calm - N/A   Clear
7:53 PM 48.0 °F - 12.0 °F 24% 30.09 in 10.0 mi Calm Calm - N/A   Clear
8:53 PM 46.9 °F - 12.9 °F 25% 30.07 in 10.0 mi SSW 5.8 mph - N/A   Clear
9:53 PM 37.9 °F 32.1 °F 16.0 °F 41% 30.11 in 10.0 mi WNW 8.1 mph - N/A   Clear
10:53 PM 36.0 °F 30.3 °F 16.0 °F 44% 30.11 in 10.0 mi NW 6.9 mph - N/A   Clear
11:53 PM 35.1 °F 30.1 °F 16.0 °F 46% 30.12 in 10.0 mi WNW 5.8 mph - N/A   Clear